Location: Habighorst
(52.7089°N, 10.2278°E)
Time: 01:07:09
(UTC+00:00)

Cosmos 2344 - Pass Details

Date: 13 January 2026
Orbit: 1195 x 3047 km, 63.3° (Epoch: 18 February)

Event Time Altitude Azimuth Distance (km) Brightness Sun altitude
Exits shadow 04:20:20 35° 328° (NNW) 1,852 4.1 -27.0°
Maximum altitude 04:21:52 39° 354° (N) 1,776 4.2 -26.8°
Drops below altitude 10° 04:29:19 10° 63° (ENE) 3,493 6.6 -25.7°
Sets 04:32:47 0° 71° (ENE) 4,670 7.6 -25.2°
